Location: Cuiry
(49.3858°N, 3.7708°E)
Time: 05:55:41
(UTC+00:00)

UNK - Pass Details

Date: 17 April 2026
Orbit: 653 x 673 km, 98.4° (Epoch: 15 May)

Event Time Altitude Azimuth Distance (km) Brightness Sun altitude
Rises 19:13:15 0° 359° (N) 3,010 7.4 -5.8°
Reaches altitude 10° 19:16:38 10° 332° (NNW) 2,087 7.2 -6.3°
Maximum altitude 19:18:39 13° 306° (NW) 1,891 7.6 -6.6°
Drops below altitude 10° 19:20:39 10° 279° (W) 2,076 7.7 -6.9°
Sets 19:24:01 0° 252° (WSW) 2,979 7.8 -7.4°
